Index of /20260430/WXO-DD/model_rdps/10km/06/037
Name Last modified Size Description
Parent Directory -
20260430T06Z_MSC_RDPS_AbsoluteVorticity_IsbL-0250_RLatLon0.09_PT037H.grib2 2026-04-30 08:52 596K
20260430T06Z_MSC_RDPS_AbsoluteVorticity_IsbL-0500_RLatLon0.09_PT037H.grib2 2026-04-30 08:52 685K
20260430T06Z_MSC_RDPS_AbsoluteVorticity_IsbL-0700_RLatLon0.09_PT037H.grib2 2026-04-30 08:52 618K
20260430T06Z_MSC_RDPS_AbsoluteVorticity_IsbL-0850_RLatLon0.09_PT037H.grib2 2026-04-30 08:52 775K
20260430T06Z_MSC_RDPS_AirTemp_AGL-120m_RLatLon0.09_PT037H.grib2 2026-04-30 08:52 394K
20260430T06Z_MSC_RDPS_AirTemp_AGL-2m_RLatLon0.09_PT037H.grib2 2026-04-30 08:52 632K
20260430T06Z_MSC_RDPS_AirTemp_AGL-40m_RLatLon0.09_PT037H.grib2 2026-04-30 08:52 404K
20260430T06Z_MSC_RDPS_AirTemp_AGL-80m_RLatLon0.09_PT037H.grib2 2026-04-30 08:52 398K
20260430T06Z_MSC_RDPS_AirTemp_IsbL-0001_RLatLon0.09_PT037H.grib2 2026-04-30 08:52 280K
20260430T06Z_MSC_RDPS_AirTemp_IsbL-0005_RLatLon0.09_PT037H.grib2 2026-04-30 08:52 288K
20260430T06Z_MSC_RDPS_AirTemp_IsbL-0010_RLatLon0.09_PT037H.grib2 2026-04-30 08:52 299K
20260430T06Z_MSC_RDPS_AirTemp_IsbL-0020_RLatLon0.09_PT037H.grib2 2026-04-30 08:52 411K
20260430T06Z_MSC_RDPS_AirTemp_IsbL-0030_RLatLon0.09_PT037H.grib2 2026-04-30 08:52 336K
20260430T06Z_MSC_RDPS_AirTemp_IsbL-0050_RLatLon0.09_PT037H.grib2 2026-04-30 08:52 311K
20260430T06Z_MSC_RDPS_AirTemp_IsbL-0100_RLatLon0.09_PT037H.grib2 2026-04-30 08:52 419K
20260430T06Z_MSC_RDPS_AirTemp_IsbL-0150_RLatLon0.09_PT037H.grib2 2026-04-30 08:52 418K
20260430T06Z_MSC_RDPS_AirTemp_IsbL-0175_RLatLon0.09_PT037H.grib2 2026-04-30 08:52 410K
20260430T06Z_MSC_RDPS_AirTemp_IsbL-0200_RLatLon0.09_PT037H.grib2 2026-04-30 08:52 413K
20260430T06Z_MSC_RDPS_AirTemp_IsbL-0225_RLatLon0.09_PT037H.grib2 2026-04-30 08:52 413K
20260430T06Z_MSC_RDPS_AirTemp_IsbL-0250_RLatLon0.09_PT037H.grib2 2026-04-30 08:52 418K
20260430T06Z_MSC_RDPS_AirTemp_IsbL-0275_RLatLon0.09_PT037H.grib2 2026-04-30 08:52 397K
20260430T06Z_MSC_RDPS_AirTemp_IsbL-0300_RLatLon0.09_PT037H.grib2 2026-04-30 08:52 402K
20260430T06Z_MSC_RDPS_AirTemp_IsbL-0350_RLatLon0.09_PT037H.grib2 2026-04-30 08:52 416K
20260430T06Z_MSC_RDPS_AirTemp_IsbL-0400_RLatLon0.09_PT037H.grib2 2026-04-30 08:52 418K
20260430T06Z_MSC_RDPS_AirTemp_IsbL-0450_RLatLon0.09_PT037H.grib2 2026-04-30 08:52 391K
20260430T06Z_MSC_RDPS_AirTemp_IsbL-0500_RLatLon0.09_PT037H.grib2 2026-04-30 08:52 402K
20260430T06Z_MSC_RDPS_AirTemp_IsbL-0550_RLatLon0.09_PT037H.grib2 2026-04-30 08:52 422K
20260430T06Z_MSC_RDPS_AirTemp_IsbL-0600_RLatLon0.09_PT037H.grib2 2026-04-30 08:52 445K
20260430T06Z_MSC_RDPS_AirTemp_IsbL-0650_RLatLon0.09_PT037H.grib2 2026-04-30 08:52 359K
20260430T06Z_MSC_RDPS_AirTemp_IsbL-0700_RLatLon0.09_PT037H.grib2 2026-04-30 08:52 379K
20260430T06Z_MSC_RDPS_AirTemp_IsbL-0750_RLatLon0.09_PT037H.grib2 2026-04-30 08:52 413K
20260430T06Z_MSC_RDPS_AirTemp_IsbL-0800_RLatLon0.09_PT037H.grib2 2026-04-30 08:52 455K
20260430T06Z_MSC_RDPS_AirTemp_IsbL-0850_RLatLon0.09_PT037H.grib2 2026-04-30 08:52 501K
20260430T06Z_MSC_RDPS_AirTemp_IsbL-0875_RLatLon0.09_PT037H.grib2 2026-04-30 08:52 522K
20260430T06Z_MSC_RDPS_AirTemp_IsbL-0900_RLatLon0.09_PT037H.grib2 2026-04-30 08:52 533K
20260430T06Z_MSC_RDPS_AirTemp_IsbL-0925_RLatLon0.09_PT037H.grib2 2026-04-30 08:52 531K
20260430T06Z_MSC_RDPS_AirTemp_IsbL-0950_RLatLon0.09_PT037H.grib2 2026-04-30 08:52 533K
20260430T06Z_MSC_RDPS_AirTemp_IsbL-0970_RLatLon0.09_PT037H.grib2 2026-04-30 08:52 527K
20260430T06Z_MSC_RDPS_AirTemp_IsbL-0985_RLatLon0.09_PT037H.grib2 2026-04-30 08:52 531K
20260430T06Z_MSC_RDPS_AirTemp_IsbL-1000_RLatLon0.09_PT037H.grib2 2026-04-30 08:52 519K
20260430T06Z_MSC_RDPS_AirTemp_IsbL-1015_RLatLon0.09_PT037H.grib2 2026-04-30 08:52 514K
20260430T06Z_MSC_RDPS_Albedo_Sfc_RLatLon0.09_PT037H.grib2 2026-04-30 08:52 159K
20260430T06Z_MSC_RDPS_CAPE_Sfc_RLatLon0.09_PT037H.grib2 2026-04-30 08:52 1.8M
20260430T06Z_MSC_RDPS_CIN_Sfc_RLatLon0.09_PT037H.grib2 2026-04-30 08:52 1.2M
20260430T06Z_MSC_RDPS_CloudWater_EAtm_RLatLon0.09_PT037H.grib2 2026-04-30 08:52 221K
20260430T06Z_MSC_RDPS_ConvectivePrecip-Accum_Sfc_RLatLon0.09_PT037H.grib2 2026-04-30 08:52 925K
20260430T06Z_MSC_RDPS_DewPointDepression_AGL-2m_RLatLon0.09_PT037H.grib2 2026-04-30 08:52 420K
20260430T06Z_MSC_RDPS_DewPointDepression_IsbL-0001_RLatLon0.09_PT037H.grib2 2026-04-30 08:52 193
20260430T06Z_MSC_RDPS_DewPointDepression_IsbL-0005_RLatLon0.09_PT037H.grib2 2026-04-30 08:52 193
20260430T06Z_MSC_RDPS_DewPointDepression_IsbL-0010_RLatLon0.09_PT037H.grib2 2026-04-30 08:52 193
20260430T06Z_MSC_RDPS_DewPointDepression_IsbL-0020_RLatLon0.09_PT037H.grib2 2026-04-30 08:52 193
20260430T06Z_MSC_RDPS_DewPointDepression_IsbL-0030_RLatLon0.09_PT037H.grib2 2026-04-30 08:52 193
20260430T06Z_MSC_RDPS_DewPointDepression_IsbL-0050_RLatLon0.09_PT037H.grib2 2026-04-30 08:52 108K
20260430T06Z_MSC_RDPS_DewPointDepression_IsbL-0100_RLatLon0.09_PT037H.grib2 2026-04-30 08:52 124K
20260430T06Z_MSC_RDPS_DewPointDepression_IsbL-0150_RLatLon0.09_PT037H.grib2 2026-04-30 08:52 153K
20260430T06Z_MSC_RDPS_DewPointDepression_IsbL-0175_RLatLon0.09_PT037H.grib2 2026-04-30 08:52 186K
20260430T06Z_MSC_RDPS_DewPointDepression_IsbL-0200_RLatLon0.09_PT037H.grib2 2026-04-30 08:52 222K
20260430T06Z_MSC_RDPS_DewPointDepression_IsbL-0225_RLatLon0.09_PT037H.grib2 2026-04-30 08:52 259K
20260430T06Z_MSC_RDPS_DewPointDepression_IsbL-0250_RLatLon0.09_PT037H.grib2 2026-04-30 08:52 299K
20260430T06Z_MSC_RDPS_DewPointDepression_IsbL-0275_RLatLon0.09_PT037H.grib2 2026-04-30 08:52 303K
20260430T06Z_MSC_RDPS_DewPointDepression_IsbL-0300_RLatLon0.09_PT037H.grib2 2026-04-30 08:52 319K
20260430T06Z_MSC_RDPS_DewPointDepression_IsbL-0350_RLatLon0.09_PT037H.grib2 2026-04-30 08:52 326K
20260430T06Z_MSC_RDPS_DewPointDepression_IsbL-0400_RLatLon0.09_PT037H.grib2 2026-04-30 08:52 339K
20260430T06Z_MSC_RDPS_DewPointDepression_IsbL-0450_RLatLon0.09_PT037H.grib2 2026-04-30 08:52 344K
20260430T06Z_MSC_RDPS_DewPointDepression_IsbL-0500_RLatLon0.09_PT037H.grib2 2026-04-30 08:52 349K
20260430T06Z_MSC_RDPS_DewPointDepression_IsbL-0550_RLatLon0.09_PT037H.grib2 2026-04-30 08:52 362K
20260430T06Z_MSC_RDPS_DewPointDepression_IsbL-0600_RLatLon0.09_PT037H.grib2 2026-04-30 08:52 379K
20260430T06Z_MSC_RDPS_DewPointDepression_IsbL-0650_RLatLon0.09_PT037H.grib2 2026-04-30 08:52 384K
20260430T06Z_MSC_RDPS_DewPointDepression_IsbL-0700_RLatLon0.09_PT037H.grib2 2026-04-30 08:52 392K
20260430T06Z_MSC_RDPS_DewPointDepression_IsbL-0750_RLatLon0.09_PT037H.grib2 2026-04-30 08:52 416K
20260430T06Z_MSC_RDPS_DewPointDepression_IsbL-0800_RLatLon0.09_PT037H.grib2 2026-04-30 08:52 451K
20260430T06Z_MSC_RDPS_DewPointDepression_IsbL-0850_RLatLon0.09_PT037H.grib2 2026-04-30 08:52 478K
20260430T06Z_MSC_RDPS_DewPointDepression_IsbL-0875_RLatLon0.09_PT037H.grib2 2026-04-30 08:52 481K
20260430T06Z_MSC_RDPS_DewPointDepression_IsbL-0900_RLatLon0.09_PT037H.grib2 2026-04-30 08:52 474K
20260430T06Z_MSC_RDPS_DewPointDepression_IsbL-0925_RLatLon0.09_PT037H.grib2 2026-04-30 08:52 457K
20260430T06Z_MSC_RDPS_DewPointDepression_IsbL-0950_RLatLon0.09_PT037H.grib2 2026-04-30 08:52 451K
20260430T06Z_MSC_RDPS_DewPointDepression_IsbL-0970_RLatLon0.09_PT037H.grib2 2026-04-30 08:52 442K
20260430T06Z_MSC_RDPS_DewPointDepression_IsbL-0985_RLatLon0.09_PT037H.grib2 2026-04-30 08:52 438K
20260430T06Z_MSC_RDPS_DewPointDepression_IsbL-1000_RLatLon0.09_PT037H.grib2 2026-04-30 08:52 432K
20260430T06Z_MSC_RDPS_DewPointDepression_IsbL-1015_RLatLon0.09_PT037H.grib2 2026-04-30 08:52 422K
20260430T06Z_MSC_RDPS_DewPoint_AGL-2m_RLatLon0.09_PT037H.grib2 2026-04-30 08:52 399K
20260430T06Z_MSC_RDPS_DownwardLongwaveRadiationFlux-Accum_Sfc_RLatLon0.09_PT037H.grib2 2026-04-30 08:52 373K
20260430T06Z_MSC_RDPS_DownwardShortwaveRadiationFlux-Accum_NTAtm_RLatLon0.09_PT037H.grib2 2026-04-30 08:52 90K
20260430T06Z_MSC_RDPS_DownwardShortwaveRadiationFlux-Accum_Sfc_RLatLon0.09_PT037H.grib2 2026-04-30 08:52 515K
20260430T06Z_MSC_RDPS_FreezingRain-Accum1h_Sfc_RLatLon0.09_PT037H.grib2 2026-04-30 08:52 14K
20260430T06Z_MSC_RDPS_FreezingRain-Accum_Sfc_RLatLon0.09_PT037H.grib2 2026-04-30 08:52 145K
20260430T06Z_MSC_RDPS_GeopotentialHeight_IsbL-0001_RLatLon0.09_PT037H.grib2 2026-04-30 08:52 320K
20260430T06Z_MSC_RDPS_GeopotentialHeight_IsbL-0005_RLatLon0.09_PT037H.grib2 2026-04-30 08:52 337K
20260430T06Z_MSC_RDPS_GeopotentialHeight_IsbL-0010_RLatLon0.09_PT037H.grib2 2026-04-30 08:52 339K
20260430T06Z_MSC_RDPS_GeopotentialHeight_IsbL-0020_RLatLon0.09_PT037H.grib2 2026-04-30 08:52 305K
20260430T06Z_MSC_RDPS_GeopotentialHeight_IsbL-0030_RLatLon0.09_PT037H.grib2 2026-04-30 08:52 307K
20260430T06Z_MSC_RDPS_GeopotentialHeight_IsbL-0050_RLatLon0.09_PT037H.grib2 2026-04-30 08:52 307K
20260430T06Z_MSC_RDPS_GeopotentialHeight_IsbL-0100_RLatLon0.09_PT037H.grib2 2026-04-30 08:52 284K
20260430T06Z_MSC_RDPS_GeopotentialHeight_IsbL-0150_RLatLon0.09_PT037H.grib2 2026-04-30 08:52 227K
20260430T06Z_MSC_RDPS_GeopotentialHeight_IsbL-0175_RLatLon0.09_PT037H.grib2 2026-04-30 08:52 231K
20260430T06Z_MSC_RDPS_GeopotentialHeight_IsbL-0200_RLatLon0.09_PT037H.grib2 2026-04-30 08:52 265K
20260430T06Z_MSC_RDPS_GeopotentialHeight_IsbL-0225_RLatLon0.09_PT037H.grib2 2026-04-30 08:52 266K
20260430T06Z_MSC_RDPS_GeopotentialHeight_IsbL-0250_RLatLon0.09_PT037H.grib2 2026-04-30 08:52 266K
20260430T06Z_MSC_RDPS_GeopotentialHeight_IsbL-0275_RLatLon0.09_PT037H.grib2 2026-04-30 08:52 265K
20260430T06Z_MSC_RDPS_GeopotentialHeight_IsbL-0300_RLatLon0.09_PT037H.grib2 2026-04-30 08:52 234K
20260430T06Z_MSC_RDPS_GeopotentialHeight_IsbL-0350_RLatLon0.09_PT037H.grib2 2026-04-30 08:52 230K
20260430T06Z_MSC_RDPS_GeopotentialHeight_IsbL-0400_RLatLon0.09_PT037H.grib2 2026-04-30 08:52 227K
20260430T06Z_MSC_RDPS_GeopotentialHeight_IsbL-0450_RLatLon0.09_PT037H.grib2 2026-04-30 08:52 295K
20260430T06Z_MSC_RDPS_GeopotentialHeight_IsbL-0500_RLatLon0.09_PT037H.grib2 2026-04-30 08:52 291K
20260430T06Z_MSC_RDPS_GeopotentialHeight_IsbL-0550_RLatLon0.09_PT037H.grib2 2026-04-30 08:52 287K
20260430T06Z_MSC_RDPS_GeopotentialHeight_IsbL-0600_RLatLon0.09_PT037H.grib2 2026-04-30 08:52 285K
20260430T06Z_MSC_RDPS_GeopotentialHeight_IsbL-0650_RLatLon0.09_PT037H.grib2 2026-04-30 08:52 255K
20260430T06Z_MSC_RDPS_GeopotentialHeight_IsbL-0700_RLatLon0.09_PT037H.grib2 2026-04-30 08:52 255K
20260430T06Z_MSC_RDPS_GeopotentialHeight_IsbL-0750_RLatLon0.09_PT037H.grib2 2026-04-30 08:52 340K
20260430T06Z_MSC_RDPS_GeopotentialHeight_IsbL-0800_RLatLon0.09_PT037H.grib2 2026-04-30 08:52 347K
20260430T06Z_MSC_RDPS_GeopotentialHeight_IsbL-0850_RLatLon0.09_PT037H.grib2 2026-04-30 08:52 356K
20260430T06Z_MSC_RDPS_GeopotentialHeight_IsbL-0875_RLatLon0.09_PT037H.grib2 2026-04-30 08:52 359K
20260430T06Z_MSC_RDPS_GeopotentialHeight_IsbL-0900_RLatLon0.09_PT037H.grib2 2026-04-30 08:52 364K
20260430T06Z_MSC_RDPS_GeopotentialHeight_IsbL-0925_RLatLon0.09_PT037H.grib2 2026-04-30 08:52 368K
20260430T06Z_MSC_RDPS_GeopotentialHeight_IsbL-0950_RLatLon0.09_PT037H.grib2 2026-04-30 08:52 372K
20260430T06Z_MSC_RDPS_GeopotentialHeight_IsbL-0970_RLatLon0.09_PT037H.grib2 2026-04-30 08:52 378K
20260430T06Z_MSC_RDPS_GeopotentialHeight_IsbL-0985_RLatLon0.09_PT037H.grib2 2026-04-30 08:52 387K
20260430T06Z_MSC_RDPS_GeopotentialHeight_IsbL-1000_RLatLon0.09_PT037H.grib2 2026-04-30 08:52 401K
20260430T06Z_MSC_RDPS_GeopotentialHeight_IsbL-1015_RLatLon0.09_PT037H.grib2 2026-04-30 08:52 417K
20260430T06Z_MSC_RDPS_Humidex_Sfc_RLatLon0.09_PT037H.grib2 2026-04-30 08:52 2.4M
20260430T06Z_MSC_RDPS_IcePellets-Accum1h_Sfc_RLatLon0.09_PT037H.grib2 2026-04-30 08:52 6.1K
20260430T06Z_MSC_RDPS_IcePellets-Accum_Sfc_RLatLon0.09_PT037H.grib2 2026-04-30 08:52 20K
20260430T06Z_MSC_RDPS_KIndex_Sfc_RLatLon0.09_PT037H.grib2 2026-04-30 08:52 2.4M
20260430T06Z_MSC_RDPS_LatentHeatNetFlux_Sfc_RLatLon0.09_PT037H.grib2 2026-04-30 08:52 304K
20260430T06Z_MSC_RDPS_LiftedIndex-MU-VT_IsbL-0500_RLatLon0.09_PT037H.grib2 2026-04-30 08:52 2.4M
20260430T06Z_MSC_RDPS_NetLongwaveRadiationFlux-Accum_Sfc_RLatLon0.09_PT037H.grib2 2026-04-30 08:52 505K
20260430T06Z_MSC_RDPS_NetShortwaveRadiationFlux-Accum_Sfc_RLatLon0.09_PT037H.grib2 2026-04-30 08:52 559K
20260430T06Z_MSC_RDPS_PlanetaryBoundaryLayerHeight_Sfc_RLatLon0.09_PT037H.grib2 2026-04-30 08:52 1.0M
20260430T06Z_MSC_RDPS_Precip-Accum1h_Sfc_RLatLon0.09_PT037H.grib2 2026-04-30 08:52 1.2M
20260430T06Z_MSC_RDPS_Precip-Accum_Sfc_RLatLon0.09_PT037H.grib2 2026-04-30 08:52 1.9M
20260430T06Z_MSC_RDPS_PrecipRate_Sfc_RLatLon0.09_PT037H.grib2 2026-04-30 08:52 173K
20260430T06Z_MSC_RDPS_PrecipType-Instant_Sfc_RLatLon0.09_PT037H.grib2 2026-04-30 08:52 555K
20260430T06Z_MSC_RDPS_Pressure-Trend3h_Sfc_RLatLon0.09_PT037H.grib2 2026-04-30 08:52 1.2M
20260430T06Z_MSC_RDPS_Pressure_MSL_RLatLon0.09_PT037H.grib2 2026-04-30 08:52 331K
20260430T06Z_MSC_RDPS_Pressure_PVU-1.5_RLatLon0.09_PT037H.grib2 2026-04-30 08:52 2.3M
20260430T06Z_MSC_RDPS_Pressure_PVU-1_RLatLon0.09_PT037H.grib2 2026-04-30 08:52 2.4M
20260430T06Z_MSC_RDPS_Pressure_PVU-2_RLatLon0.09_PT037H.grib2 2026-04-30 08:52 2.4M
20260430T06Z_MSC_RDPS_Pressure_Sfc_RLatLon0.09_PT037H.grib2 2026-04-30 08:52 499K
20260430T06Z_MSC_RDPS_RadiativeTemp_Sfc_RLatLon0.09_PT037H.grib2 2026-04-30 08:52 333K
20260430T06Z_MSC_RDPS_Rain-Accum1h_Sfc_RLatLon0.09_PT037H.grib2 2026-04-30 08:52 520K
20260430T06Z_MSC_RDPS_Rain-Accum_Sfc_RLatLon0.09_PT037H.grib2 2026-04-30 08:52 1.5M
20260430T06Z_MSC_RDPS_RelativeHumidity_AGL-2m_RLatLon0.09_PT037H.grib2 2026-04-30 08:52 1.0M
20260430T06Z_MSC_RDPS_RelativeHumidity_IsbL-0010_RLatLon0.09_PT037H.grib2 2026-04-30 08:52 634K
20260430T06Z_MSC_RDPS_RelativeHumidity_IsbL-0020_RLatLon0.09_PT037H.grib2 2026-04-30 08:52 677K
20260430T06Z_MSC_RDPS_RelativeHumidity_IsbL-0030_RLatLon0.09_PT037H.grib2 2026-04-30 08:52 606K
20260430T06Z_MSC_RDPS_RelativeHumidity_IsbL-0050_RLatLon0.09_PT037H.grib2 2026-04-30 08:52 363K
20260430T06Z_MSC_RDPS_RelativeHumidity_IsbL-0100_RLatLon0.09_PT037H.grib2 2026-04-30 08:52 274K
20260430T06Z_MSC_RDPS_RelativeHumidity_IsbL-0150_RLatLon0.09_PT037H.grib2 2026-04-30 08:52 408K
20260430T06Z_MSC_RDPS_RelativeHumidity_IsbL-0175_RLatLon0.09_PT037H.grib2 2026-04-30 08:52 472K
20260430T06Z_MSC_RDPS_RelativeHumidity_IsbL-0200_RLatLon0.09_PT037H.grib2 2026-04-30 08:52 555K
20260430T06Z_MSC_RDPS_RelativeHumidity_IsbL-0225_RLatLon0.09_PT037H.grib2 2026-04-30 08:52 624K
20260430T06Z_MSC_RDPS_RelativeHumidity_IsbL-0250_RLatLon0.09_PT037H.grib2 2026-04-30 08:52 689K
20260430T06Z_MSC_RDPS_RelativeHumidity_IsbL-0275_RLatLon0.09_PT037H.grib2 2026-04-30 08:52 708K
20260430T06Z_MSC_RDPS_RelativeHumidity_IsbL-0300_RLatLon0.09_PT037H.grib2 2026-04-30 08:52 746K
20260430T06Z_MSC_RDPS_RelativeHumidity_IsbL-0350_RLatLon0.09_PT037H.grib2 2026-04-30 08:52 768K
20260430T06Z_MSC_RDPS_RelativeHumidity_IsbL-0400_RLatLon0.09_PT037H.grib2 2026-04-30 08:52 787K
20260430T06Z_MSC_RDPS_RelativeHumidity_IsbL-0450_RLatLon0.09_PT037H.grib2 2026-04-30 08:52 793K
20260430T06Z_MSC_RDPS_RelativeHumidity_IsbL-0500_RLatLon0.09_PT037H.grib2 2026-04-30 08:52 799K
20260430T06Z_MSC_RDPS_RelativeHumidity_IsbL-0550_RLatLon0.09_PT037H.grib2 2026-04-30 08:52 821K
20260430T06Z_MSC_RDPS_RelativeHumidity_IsbL-0600_RLatLon0.09_PT037H.grib2 2026-04-30 08:52 847K
20260430T06Z_MSC_RDPS_RelativeHumidity_IsbL-0650_RLatLon0.09_PT037H.grib2 2026-04-30 08:52 859K
20260430T06Z_MSC_RDPS_RelativeHumidity_IsbL-0700_RLatLon0.09_PT037H.grib2 2026-04-30 08:52 890K
20260430T06Z_MSC_RDPS_RelativeHumidity_IsbL-0750_RLatLon0.09_PT037H.grib2 2026-04-30 08:52 933K
20260430T06Z_MSC_RDPS_RelativeHumidity_IsbL-0800_RLatLon0.09_PT037H.grib2 2026-04-30 08:52 1.0M
20260430T06Z_MSC_RDPS_RelativeHumidity_IsbL-0850_RLatLon0.09_PT037H.grib2 2026-04-30 08:52 1.0M
20260430T06Z_MSC_RDPS_RelativeHumidity_IsbL-0875_RLatLon0.09_PT037H.grib2 2026-04-30 08:52 1.1M
20260430T06Z_MSC_RDPS_RelativeHumidity_IsbL-0900_RLatLon0.09_PT037H.grib2 2026-04-30 08:52 1.1M
20260430T06Z_MSC_RDPS_RelativeHumidity_IsbL-0925_RLatLon0.09_PT037H.grib2 2026-04-30 08:52 1.1M
20260430T06Z_MSC_RDPS_RelativeHumidity_IsbL-0950_RLatLon0.09_PT037H.grib2 2026-04-30 08:52 1.1M
20260430T06Z_MSC_RDPS_RelativeHumidity_IsbL-0970_RLatLon0.09_PT037H.grib2 2026-04-30 08:52 1.1M
20260430T06Z_MSC_RDPS_RelativeHumidity_IsbL-0985_RLatLon0.09_PT037H.grib2 2026-04-30 08:52 1.0M
20260430T06Z_MSC_RDPS_RelativeHumidity_IsbL-1000_RLatLon0.09_PT037H.grib2 2026-04-30 08:52 1.0M
20260430T06Z_MSC_RDPS_RelativeHumidity_IsbL-1015_RLatLon0.09_PT037H.grib2 2026-04-30 08:52 1.0M
20260430T06Z_MSC_RDPS_Runoff-Accum_Sfc_RLatLon0.09_PT037H.grib2 2026-04-30 08:52 44K
20260430T06Z_MSC_RDPS_SWEATIndex_Sfc_RLatLon0.09_PT037H.grib2 2026-04-30 08:52 2.4M
20260430T06Z_MSC_RDPS_SeeingIndex_EAtm_RLatLon0.09_PT037H.grib2 2026-04-30 08:52 1.0M
20260430T06Z_MSC_RDPS_SensibleHeatNetFlux_Sfc_RLatLon0.09_PT037H.grib2 2026-04-30 08:52 363K
20260430T06Z_MSC_RDPS_ShowalterIndex_IsbL-0500_RLatLon0.09_PT037H.grib2 2026-04-30 08:52 2.6M
20260430T06Z_MSC_RDPS_SkyTransparencyIndex_EAtm_RLatLon0.09_PT037H.grib2 2026-04-30 08:52 719K
20260430T06Z_MSC_RDPS_Snow-Accum1h_Sfc_RLatLon0.09_PT037H.grib2 2026-04-30 08:52 447K
20260430T06Z_MSC_RDPS_Snow-Accum_Sfc_RLatLon0.09_PT037H.grib2 2026-04-30 08:52 724K
20260430T06Z_MSC_RDPS_SnowDensity_Sfc_RLatLon0.09_PT037H.grib2 2026-04-30 08:52 176K
20260430T06Z_MSC_RDPS_SnowDepth_Sfc_RLatLon0.09_PT037H.grib2 2026-04-30 08:52 670K
20260430T06Z_MSC_RDPS_SoilTemp_DBS-0to10cm_RLatLon0.09_PT037H.grib2 2026-04-30 08:52 235K
20260430T06Z_MSC_RDPS_SoilTemp_Sfc_RLatLon0.09_PT037H.grib2 2026-04-30 08:52 296K
20260430T06Z_MSC_RDPS_SoilVolumetricIceContent_Sfc_RLatLon0.09_PT037H.grib2 2026-04-30 08:52 161K
20260430T06Z_MSC_RDPS_SoilVolumetricWaterContent_DBS-0to10cm_RLatLon0.09_PT037H.grib2 2026-04-30 08:52 269K
20260430T06Z_MSC_RDPS_SoilVolumetricWaterContent_DBS-0to1cm_RLatLon0.09_PT037H.grib2 2026-04-30 08:52 338K
20260430T06Z_MSC_RDPS_SpecificHumidity_AGL-120m_RLatLon0.09_PT037H.grib2 2026-04-30 08:52 497K
20260430T06Z_MSC_RDPS_SpecificHumidity_AGL-2m_RLatLon0.09_PT037H.grib2 2026-04-30 08:52 666K
20260430T06Z_MSC_RDPS_SpecificHumidity_AGL-40m_RLatLon0.09_PT037H.grib2 2026-04-30 08:52 501K
20260430T06Z_MSC_RDPS_SpecificHumidity_AGL-80m_RLatLon0.09_PT037H.grib2 2026-04-30 08:52 498K
20260430T06Z_MSC_RDPS_SpecificHumidity_IsbL-0001_RLatLon0.09_PT037H.grib2 2026-04-30 08:52 370K
20260430T06Z_MSC_RDPS_SpecificHumidity_IsbL-0005_RLatLon0.09_PT037H.grib2 2026-04-30 08:52 363K
20260430T06Z_MSC_RDPS_SpecificHumidity_IsbL-0010_RLatLon0.09_PT037H.grib2 2026-04-30 08:52 395K
20260430T06Z_MSC_RDPS_SpecificHumidity_IsbL-0020_RLatLon0.09_PT037H.grib2 2026-04-30 08:52 386K
20260430T06Z_MSC_RDPS_SpecificHumidity_IsbL-0030_RLatLon0.09_PT037H.grib2 2026-04-30 08:52 373K
20260430T06Z_MSC_RDPS_SpecificHumidity_IsbL-0050_RLatLon0.09_PT037H.grib2 2026-04-30 08:52 485K
20260430T06Z_MSC_RDPS_SpecificHumidity_IsbL-0100_RLatLon0.09_PT037H.grib2 2026-04-30 08:52 421K
20260430T06Z_MSC_RDPS_SpecificHumidity_IsbL-0150_RLatLon0.09_PT037H.grib2 2026-04-30 08:52 475K
20260430T06Z_MSC_RDPS_SpecificHumidity_IsbL-0175_RLatLon0.09_PT037H.grib2 2026-04-30 08:52 429K
20260430T06Z_MSC_RDPS_SpecificHumidity_IsbL-0200_RLatLon0.09_PT037H.grib2 2026-04-30 08:52 448K
20260430T06Z_MSC_RDPS_SpecificHumidity_IsbL-0225_RLatLon0.09_PT037H.grib2 2026-04-30 08:52 454K
20260430T06Z_MSC_RDPS_SpecificHumidity_IsbL-0250_RLatLon0.09_PT037H.grib2 2026-04-30 08:52 558K
20260430T06Z_MSC_RDPS_SpecificHumidity_IsbL-0275_RLatLon0.09_PT037H.grib2 2026-04-30 08:52 469K
20260430T06Z_MSC_RDPS_SpecificHumidity_IsbL-0300_RLatLon0.09_PT037H.grib2 2026-04-30 08:52 564K
20260430T06Z_MSC_RDPS_SpecificHumidity_IsbL-0350_RLatLon0.09_PT037H.grib2 2026-04-30 08:52 530K
20260430T06Z_MSC_RDPS_SpecificHumidity_IsbL-0400_RLatLon0.09_PT037H.grib2 2026-04-30 08:52 515K
20260430T06Z_MSC_RDPS_SpecificHumidity_IsbL-0450_RLatLon0.09_PT037H.grib2 2026-04-30 08:52 567K
20260430T06Z_MSC_RDPS_SpecificHumidity_IsbL-0500_RLatLon0.09_PT037H.grib2 2026-04-30 08:52 504K
20260430T06Z_MSC_RDPS_SpecificHumidity_IsbL-0550_RLatLon0.09_PT037H.grib2 2026-04-30 08:52 579K
20260430T06Z_MSC_RDPS_SpecificHumidity_IsbL-0600_RLatLon0.09_PT037H.grib2 2026-04-30 08:52 637K
20260430T06Z_MSC_RDPS_SpecificHumidity_IsbL-0650_RLatLon0.09_PT037H.grib2 2026-04-30 08:52 553K
20260430T06Z_MSC_RDPS_SpecificHumidity_IsbL-0700_RLatLon0.09_PT037H.grib2 2026-04-30 08:52 594K
20260430T06Z_MSC_RDPS_SpecificHumidity_IsbL-0750_RLatLon0.09_PT037H.grib2 2026-04-30 08:52 654K
20260430T06Z_MSC_RDPS_SpecificHumidity_IsbL-0800_RLatLon0.09_PT037H.grib2 2026-04-30 08:52 741K
20260430T06Z_MSC_RDPS_SpecificHumidity_IsbL-0850_RLatLon0.09_PT037H.grib2 2026-04-30 08:52 678K
20260430T06Z_MSC_RDPS_SpecificHumidity_IsbL-0875_RLatLon0.09_PT037H.grib2 2026-04-30 08:52 701K
20260430T06Z_MSC_RDPS_SpecificHumidity_IsbL-0900_RLatLon0.09_PT037H.grib2 2026-04-30 08:52 714K
20260430T06Z_MSC_RDPS_SpecificHumidity_IsbL-0925_RLatLon0.09_PT037H.grib2 2026-04-30 08:52 713K
20260430T06Z_MSC_RDPS_SpecificHumidity_IsbL-0950_RLatLon0.09_PT037H.grib2 2026-04-30 08:52 716K
20260430T06Z_MSC_RDPS_SpecificHumidity_IsbL-0970_RLatLon0.09_PT037H.grib2 2026-04-30 08:52 705K
20260430T06Z_MSC_RDPS_SpecificHumidity_IsbL-0985_RLatLon0.09_PT037H.grib2 2026-04-30 08:52 698K
20260430T06Z_MSC_RDPS_SpecificHumidity_IsbL-1000_RLatLon0.09_PT037H.grib2 2026-04-30 08:52 690K
20260430T06Z_MSC_RDPS_SpecificHumidity_IsbL-1015_RLatLon0.09_PT037H.grib2 2026-04-30 08:52 678K
20260430T06Z_MSC_RDPS_SpecificHumidity_Sfc_RLatLon0.09_PT037H.grib2 2026-04-30 08:52 346K
20260430T06Z_MSC_RDPS_StormRelativeHelicity_EtaL-10000_RLatLon0.09_PT037H.grib2 2026-04-30 08:52 1.0M
20260430T06Z_MSC_RDPS_StormSeverityIndex_EtaL-10000_RLatLon0.09_PT037H.grib2 2026-04-30 08:52 1.2M
20260430T06Z_MSC_RDPS_Thickness_IsbL-0850to0700_RLatLon0.09_PT037H.grib2 2026-04-30 08:52 177K
20260430T06Z_MSC_RDPS_Thickness_IsbL-1000to0500_RLatLon0.09_PT037H.grib2 2026-04-30 08:52 137K
20260430T06Z_MSC_RDPS_Thickness_IsbL-1000to0850_RLatLon0.09_PT037H.grib2 2026-04-30 08:52 189K
20260430T06Z_MSC_RDPS_TotalCloudCover_Sfc_RLatLon0.09_PT037H.grib2 2026-04-30 08:52 644K
20260430T06Z_MSC_RDPS_TotalTotalsIndex_Sfc_RLatLon0.09_PT037H.grib2 2026-04-30 08:52 2.4M
20260430T06Z_MSC_RDPS_UVIndex-ClearSky_Sfc_RLatLon0.09_PT037H.grib2 2026-04-30 08:52 225K
20260430T06Z_MSC_RDPS_UVIndex_Sfc_RLatLon0.09_PT037H.grib2 2026-04-30 08:52 522K
20260430T06Z_MSC_RDPS_UpwardLongwaveRadiationFlux_NTAtm_RLatLon0.09_PT037H.grib2 2026-04-30 08:52 381K
20260430T06Z_MSC_RDPS_UpwardShortwaveRadiationFlux_NTAtm_RLatLon0.09_PT037H.grib2 2026-04-30 08:52 555K
20260430T06Z_MSC_RDPS_VerticalVelocity_IsbL-0250_RLatLon0.09_PT037H.grib2 2026-04-30 08:52 542K
20260430T06Z_MSC_RDPS_VerticalVelocity_IsbL-0500_RLatLon0.09_PT037H.grib2 2026-04-30 08:52 537K
20260430T06Z_MSC_RDPS_VerticalVelocity_IsbL-0700_RLatLon0.09_PT037H.grib2 2026-04-30 08:52 596K
20260430T06Z_MSC_RDPS_VerticalVelocity_IsbL-0850_RLatLon0.09_PT037H.grib2 2026-04-30 08:52 698K
20260430T06Z_MSC_RDPS_VerticalWindShear_EtaL-6500_RLatLon0.09_PT037H.grib2 2026-04-30 08:52 1.1M
20260430T06Z_MSC_RDPS_WindChill_Sfc_RLatLon0.09_PT037H.grib2 2026-04-30 08:52 1.1M
20260430T06Z_MSC_RDPS_WindDir_AGL-10m_RLatLon0.09_PT037H.grib2 2026-04-30 08:52 963K
20260430T06Z_MSC_RDPS_WindDir_AGL-120m_RLatLon0.09_PT037H.grib2 2026-04-30 08:52 611K
20260430T06Z_MSC_RDPS_WindDir_AGL-40m_RLatLon0.09_PT037H.grib2 2026-04-30 08:52 632K
20260430T06Z_MSC_RDPS_WindDir_AGL-80m_RLatLon0.09_PT037H.grib2 2026-04-30 08:52 620K
20260430T06Z_MSC_RDPS_WindDir_IsbL-0001_RLatLon0.09_PT037H.grib2 2026-04-30 08:52 286K
20260430T06Z_MSC_RDPS_WindDir_IsbL-0005_RLatLon0.09_PT037H.grib2 2026-04-30 08:52 358K
20260430T06Z_MSC_RDPS_WindDir_IsbL-0010_RLatLon0.09_PT037H.grib2 2026-04-30 08:52 368K
20260430T06Z_MSC_RDPS_WindDir_IsbL-0020_RLatLon0.09_PT037H.grib2 2026-04-30 08:52 416K
20260430T06Z_MSC_RDPS_WindDir_IsbL-0030_RLatLon0.09_PT037H.grib2 2026-04-30 08:52 418K
20260430T06Z_MSC_RDPS_WindDir_IsbL-0050_RLatLon0.09_PT037H.grib2 2026-04-30 08:52 403K
20260430T06Z_MSC_RDPS_WindDir_IsbL-0100_RLatLon0.09_PT037H.grib2 2026-04-30 08:52 417K
20260430T06Z_MSC_RDPS_WindDir_IsbL-0150_RLatLon0.09_PT037H.grib2 2026-04-30 08:52 417K
20260430T06Z_MSC_RDPS_WindDir_IsbL-0175_RLatLon0.09_PT037H.grib2 2026-04-30 08:52 440K
20260430T06Z_MSC_RDPS_WindDir_IsbL-0200_RLatLon0.09_PT037H.grib2 2026-04-30 08:52 450K
20260430T06Z_MSC_RDPS_WindDir_IsbL-0225_RLatLon0.09_PT037H.grib2 2026-04-30 08:52 453K
20260430T06Z_MSC_RDPS_WindDir_IsbL-0250_RLatLon0.09_PT037H.grib2 2026-04-30 08:52 452K
20260430T06Z_MSC_RDPS_WindDir_IsbL-0275_RLatLon0.09_PT037H.grib2 2026-04-30 08:52 474K
20260430T06Z_MSC_RDPS_WindDir_IsbL-0300_RLatLon0.09_PT037H.grib2 2026-04-30 08:52 470K
20260430T06Z_MSC_RDPS_WindDir_IsbL-0350_RLatLon0.09_PT037H.grib2 2026-04-30 08:52 487K
20260430T06Z_MSC_RDPS_WindDir_IsbL-0400_RLatLon0.09_PT037H.grib2 2026-04-30 08:52 503K
20260430T06Z_MSC_RDPS_WindDir_IsbL-0450_RLatLon0.09_PT037H.grib2 2026-04-30 08:52 519K
20260430T06Z_MSC_RDPS_WindDir_IsbL-0500_RLatLon0.09_PT037H.grib2 2026-04-30 08:52 534K
20260430T06Z_MSC_RDPS_WindDir_IsbL-0550_RLatLon0.09_PT037H.grib2 2026-04-30 08:52 551K
20260430T06Z_MSC_RDPS_WindDir_IsbL-0600_RLatLon0.09_PT037H.grib2 2026-04-30 08:52 582K
20260430T06Z_MSC_RDPS_WindDir_IsbL-0650_RLatLon0.09_PT037H.grib2 2026-04-30 08:52 628K
20260430T06Z_MSC_RDPS_WindDir_IsbL-0700_RLatLon0.09_PT037H.grib2 2026-04-30 08:52 673K
20260430T06Z_MSC_RDPS_WindDir_IsbL-0750_RLatLon0.09_PT037H.grib2 2026-04-30 08:52 718K
20260430T06Z_MSC_RDPS_WindDir_IsbL-0800_RLatLon0.09_PT037H.grib2 2026-04-30 08:52 786K
20260430T06Z_MSC_RDPS_WindDir_IsbL-0850_RLatLon0.09_PT037H.grib2 2026-04-30 08:52 859K
20260430T06Z_MSC_RDPS_WindDir_IsbL-0875_RLatLon0.09_PT037H.grib2 2026-04-30 08:52 887K
20260430T06Z_MSC_RDPS_WindDir_IsbL-0900_RLatLon0.09_PT037H.grib2 2026-04-30 08:52 905K
20260430T06Z_MSC_RDPS_WindDir_IsbL-0925_RLatLon0.09_PT037H.grib2 2026-04-30 08:52 912K
20260430T06Z_MSC_RDPS_WindDir_IsbL-0950_RLatLon0.09_PT037H.grib2 2026-04-30 08:52 911K
20260430T06Z_MSC_RDPS_WindDir_IsbL-0970_RLatLon0.09_PT037H.grib2 2026-04-30 08:52 920K
20260430T06Z_MSC_RDPS_WindDir_IsbL-0985_RLatLon0.09_PT037H.grib2 2026-04-30 08:52 928K
20260430T06Z_MSC_RDPS_WindDir_IsbL-1000_RLatLon0.09_PT037H.grib2 2026-04-30 08:52 941K
20260430T06Z_MSC_RDPS_WindDir_IsbL-1015_RLatLon0.09_PT037H.grib2 2026-04-30 08:52 956K
20260430T06Z_MSC_RDPS_WindGust-Max_AGL-10m_RLatLon0.09_PT037H.grib2 2026-04-30 08:52 1.0M
20260430T06Z_MSC_RDPS_WindGust-Min_AGL-10m_RLatLon0.09_PT037H.grib2 2026-04-30 08:52 969K
20260430T06Z_MSC_RDPS_WindGust_AGL-10m_RLatLon0.09_PT037H.grib2 2026-04-30 08:52 1.0M
20260430T06Z_MSC_RDPS_WindSpeed_AGL-10m_RLatLon0.09_PT037H.grib2 2026-04-30 08:52 836K
20260430T06Z_MSC_RDPS_WindSpeed_AGL-120m_RLatLon0.09_PT037H.grib2 2026-04-30 08:52 533K
20260430T06Z_MSC_RDPS_WindSpeed_AGL-40m_RLatLon0.09_PT037H.grib2 2026-04-30 08:52 535K
20260430T06Z_MSC_RDPS_WindSpeed_AGL-80m_RLatLon0.09_PT037H.grib2 2026-04-30 08:52 533K
20260430T06Z_MSC_RDPS_WindSpeed_IsbL-0001_RLatLon0.09_PT037H.grib2 2026-04-30 08:52 331K
20260430T06Z_MSC_RDPS_WindSpeed_IsbL-0005_RLatLon0.09_PT037H.grib2 2026-04-30 08:52 378K
20260430T06Z_MSC_RDPS_WindSpeed_IsbL-0010_RLatLon0.09_PT037H.grib2 2026-04-30 08:52 394K
20260430T06Z_MSC_RDPS_WindSpeed_IsbL-0020_RLatLon0.09_PT037H.grib2 2026-04-30 08:52 323K
20260430T06Z_MSC_RDPS_WindSpeed_IsbL-0030_RLatLon0.09_PT037H.grib2 2026-04-30 08:52 320K
20260430T06Z_MSC_RDPS_WindSpeed_IsbL-0050_RLatLon0.09_PT037H.grib2 2026-04-30 08:52 345K
20260430T06Z_MSC_RDPS_WindSpeed_IsbL-0100_RLatLon0.09_PT037H.grib2 2026-04-30 08:52 470K
20260430T06Z_MSC_RDPS_WindSpeed_IsbL-0150_RLatLon0.09_PT037H.grib2 2026-04-30 08:52 378K
20260430T06Z_MSC_RDPS_WindSpeed_IsbL-0175_RLatLon0.09_PT037H.grib2 2026-04-30 08:52 404K
20260430T06Z_MSC_RDPS_WindSpeed_IsbL-0200_RLatLon0.09_PT037H.grib2 2026-04-30 08:52 439K
20260430T06Z_MSC_RDPS_WindSpeed_IsbL-0225_RLatLon0.09_PT037H.grib2 2026-04-30 08:52 445K
20260430T06Z_MSC_RDPS_WindSpeed_IsbL-0250_RLatLon0.09_PT037H.grib2 2026-04-30 08:52 446K
20260430T06Z_MSC_RDPS_WindSpeed_IsbL-0275_RLatLon0.09_PT037H.grib2 2026-04-30 08:52 462K
20260430T06Z_MSC_RDPS_WindSpeed_IsbL-0300_RLatLon0.09_PT037H.grib2 2026-04-30 08:52 459K
20260430T06Z_MSC_RDPS_WindSpeed_IsbL-0350_RLatLon0.09_PT037H.grib2 2026-04-30 08:52 468K
20260430T06Z_MSC_RDPS_WindSpeed_IsbL-0400_RLatLon0.09_PT037H.grib2 2026-04-30 08:52 471K
20260430T06Z_MSC_RDPS_WindSpeed_IsbL-0450_RLatLon0.09_PT037H.grib2 2026-04-30 08:52 454K
20260430T06Z_MSC_RDPS_WindSpeed_IsbL-0500_RLatLon0.09_PT037H.grib2 2026-04-30 08:52 456K
20260430T06Z_MSC_RDPS_WindSpeed_IsbL-0550_RLatLon0.09_PT037H.grib2 2026-04-30 08:52 575K
20260430T06Z_MSC_RDPS_WindSpeed_IsbL-0600_RLatLon0.09_PT037H.grib2 2026-04-30 08:52 587K
20260430T06Z_MSC_RDPS_WindSpeed_IsbL-0650_RLatLon0.09_PT037H.grib2 2026-04-30 08:52 610K
20260430T06Z_MSC_RDPS_WindSpeed_IsbL-0700_RLatLon0.09_PT037H.grib2 2026-04-30 08:52 636K
20260430T06Z_MSC_RDPS_WindSpeed_IsbL-0750_RLatLon0.09_PT037H.grib2 2026-04-30 08:52 708K
20260430T06Z_MSC_RDPS_WindSpeed_IsbL-0800_RLatLon0.09_PT037H.grib2 2026-04-30 08:52 753K
20260430T06Z_MSC_RDPS_WindSpeed_IsbL-0850_RLatLon0.09_PT037H.grib2 2026-04-30 08:52 809K
20260430T06Z_MSC_RDPS_WindSpeed_IsbL-0875_RLatLon0.09_PT037H.grib2 2026-04-30 08:52 823K
20260430T06Z_MSC_RDPS_WindSpeed_IsbL-0900_RLatLon0.09_PT037H.grib2 2026-04-30 08:52 840K
20260430T06Z_MSC_RDPS_WindSpeed_IsbL-0925_RLatLon0.09_PT037H.grib2 2026-04-30 08:52 854K
20260430T06Z_MSC_RDPS_WindSpeed_IsbL-0950_RLatLon0.09_PT037H.grib2 2026-04-30 08:52 854K
20260430T06Z_MSC_RDPS_WindSpeed_IsbL-0970_RLatLon0.09_PT037H.grib2 2026-04-30 08:52 856K
20260430T06Z_MSC_RDPS_WindSpeed_IsbL-0985_RLatLon0.09_PT037H.grib2 2026-04-30 08:52 852K
20260430T06Z_MSC_RDPS_WindSpeed_IsbL-1000_RLatLon0.09_PT037H.grib2 2026-04-30 08:52 848K
20260430T06Z_MSC_RDPS_WindSpeed_IsbL-1015_RLatLon0.09_PT037H.grib2 2026-04-30 08:52 837K
20260430T06Z_MSC_RDPS_WindU_AGL-10m_RLatLon0.09_PT037H.grib2 2026-04-30 08:52 433K
20260430T06Z_MSC_RDPS_WindU_AGL-120m_RLatLon0.09_PT037H.grib2 2026-04-30 08:52 416K
20260430T06Z_MSC_RDPS_WindU_AGL-40m_RLatLon0.09_PT037H.grib2 2026-04-30 08:52 535K
20260430T06Z_MSC_RDPS_WindU_AGL-80m_RLatLon0.09_PT037H.grib2 2026-04-30 08:52 534K
20260430T06Z_MSC_RDPS_WindU_IsbL-0001_RLatLon0.09_PT037H.grib2 2026-04-30 08:52 243K
20260430T06Z_MSC_RDPS_WindU_IsbL-0005_RLatLon0.09_PT037H.grib2 2026-04-30 08:52 284K
20260430T06Z_MSC_RDPS_WindU_IsbL-0010_RLatLon0.09_PT037H.grib2 2026-04-30 08:52 296K
20260430T06Z_MSC_RDPS_WindU_IsbL-0020_RLatLon0.09_PT037H.grib2 2026-04-30 08:52 313K
20260430T06Z_MSC_RDPS_WindU_IsbL-0030_RLatLon0.09_PT037H.grib2 2026-04-30 08:52 313K
20260430T06Z_MSC_RDPS_WindU_IsbL-0050_RLatLon0.09_PT037H.grib2 2026-04-30 08:52 339K
20260430T06Z_MSC_RDPS_WindU_IsbL-0100_RLatLon0.09_PT037H.grib2 2026-04-30 08:52 426K
20260430T06Z_MSC_RDPS_WindU_IsbL-0150_RLatLon0.09_PT037H.grib2 2026-04-30 08:52 394K
20260430T06Z_MSC_RDPS_WindU_IsbL-0175_RLatLon0.09_PT037H.grib2 2026-04-30 08:52 418K
20260430T06Z_MSC_RDPS_WindU_IsbL-0200_RLatLon0.09_PT037H.grib2 2026-04-30 08:52 335K
20260430T06Z_MSC_RDPS_WindU_IsbL-0225_RLatLon0.09_PT037H.grib2 2026-04-30 08:52 339K
20260430T06Z_MSC_RDPS_WindU_IsbL-0250_RLatLon0.09_PT037H.grib2 2026-04-30 08:52 339K
20260430T06Z_MSC_RDPS_WindU_IsbL-0275_RLatLon0.09_PT037H.grib2 2026-04-30 08:52 352K
20260430T06Z_MSC_RDPS_WindU_IsbL-0300_RLatLon0.09_PT037H.grib2 2026-04-30 08:52 347K
20260430T06Z_MSC_RDPS_WindU_IsbL-0350_RLatLon0.09_PT037H.grib2 2026-04-30 08:52 354K
20260430T06Z_MSC_RDPS_WindU_IsbL-0400_RLatLon0.09_PT037H.grib2 2026-04-30 08:52 357K
20260430T06Z_MSC_RDPS_WindU_IsbL-0450_RLatLon0.09_PT037H.grib2 2026-04-30 08:52 461K
20260430T06Z_MSC_RDPS_WindU_IsbL-0500_RLatLon0.09_PT037H.grib2 2026-04-30 08:52 463K
20260430T06Z_MSC_RDPS_WindU_IsbL-0550_RLatLon0.09_PT037H.grib2 2026-04-30 08:52 466K
20260430T06Z_MSC_RDPS_WindU_IsbL-0600_RLatLon0.09_PT037H.grib2 2026-04-30 08:52 477K
20260430T06Z_MSC_RDPS_WindU_IsbL-0650_RLatLon0.09_PT037H.grib2 2026-04-30 08:52 482K
20260430T06Z_MSC_RDPS_WindU_IsbL-0700_RLatLon0.09_PT037H.grib2 2026-04-30 08:52 504K
20260430T06Z_MSC_RDPS_WindU_IsbL-0750_RLatLon0.09_PT037H.grib2 2026-04-30 08:52 531K
20260430T06Z_MSC_RDPS_WindU_IsbL-0800_RLatLon0.09_PT037H.grib2 2026-04-30 08:52 570K
20260430T06Z_MSC_RDPS_WindU_IsbL-0850_RLatLon0.09_PT037H.grib2 2026-04-30 08:52 618K
20260430T06Z_MSC_RDPS_WindU_IsbL-0875_RLatLon0.09_PT037H.grib2 2026-04-30 08:52 635K
20260430T06Z_MSC_RDPS_WindU_IsbL-0900_RLatLon0.09_PT037H.grib2 2026-04-30 08:52 648K
20260430T06Z_MSC_RDPS_WindU_IsbL-0925_RLatLon0.09_PT037H.grib2 2026-04-30 08:52 656K
20260430T06Z_MSC_RDPS_WindU_IsbL-0950_RLatLon0.09_PT037H.grib2 2026-04-30 08:52 653K
20260430T06Z_MSC_RDPS_WindU_IsbL-0970_RLatLon0.09_PT037H.grib2 2026-04-30 08:52 653K
20260430T06Z_MSC_RDPS_WindU_IsbL-0985_RLatLon0.09_PT037H.grib2 2026-04-30 08:52 651K
20260430T06Z_MSC_RDPS_WindU_IsbL-1000_RLatLon0.09_PT037H.grib2 2026-04-30 08:52 787K
20260430T06Z_MSC_RDPS_WindU_IsbL-1015_RLatLon0.09_PT037H.grib2 2026-04-30 08:52 780K
20260430T06Z_MSC_RDPS_WindV_AGL-10m_RLatLon0.09_PT037H.grib2 2026-04-30 08:52 431K
20260430T06Z_MSC_RDPS_WindV_AGL-120m_RLatLon0.09_PT037H.grib2 2026-04-30 08:52 529K
20260430T06Z_MSC_RDPS_WindV_AGL-40m_RLatLon0.09_PT037H.grib2 2026-04-30 08:52 531K
20260430T06Z_MSC_RDPS_WindV_AGL-80m_RLatLon0.09_PT037H.grib2 2026-04-30 08:52 529K
20260430T06Z_MSC_RDPS_WindV_IsbL-0001_RLatLon0.09_PT037H.grib2 2026-04-30 08:52 244K
20260430T06Z_MSC_RDPS_WindV_IsbL-0005_RLatLon0.09_PT037H.grib2 2026-04-30 08:52 285K
20260430T06Z_MSC_RDPS_WindV_IsbL-0010_RLatLon0.09_PT037H.grib2 2026-04-30 08:52 299K
20260430T06Z_MSC_RDPS_WindV_IsbL-0020_RLatLon0.09_PT037H.grib2 2026-04-30 08:52 317K
20260430T06Z_MSC_RDPS_WindV_IsbL-0030_RLatLon0.09_PT037H.grib2 2026-04-30 08:52 315K
20260430T06Z_MSC_RDPS_WindV_IsbL-0050_RLatLon0.09_PT037H.grib2 2026-04-30 08:52 339K
20260430T06Z_MSC_RDPS_WindV_IsbL-0100_RLatLon0.09_PT037H.grib2 2026-04-30 08:52 423K
20260430T06Z_MSC_RDPS_WindV_IsbL-0150_RLatLon0.09_PT037H.grib2 2026-04-30 08:52 392K
20260430T06Z_MSC_RDPS_WindV_IsbL-0175_RLatLon0.09_PT037H.grib2 2026-04-30 08:52 416K
20260430T06Z_MSC_RDPS_WindV_IsbL-0200_RLatLon0.09_PT037H.grib2 2026-04-30 08:52 333K
20260430T06Z_MSC_RDPS_WindV_IsbL-0225_RLatLon0.09_PT037H.grib2 2026-04-30 08:52 336K
20260430T06Z_MSC_RDPS_WindV_IsbL-0250_RLatLon0.09_PT037H.grib2 2026-04-30 08:52 335K
20260430T06Z_MSC_RDPS_WindV_IsbL-0275_RLatLon0.09_PT037H.grib2 2026-04-30 08:52 348K
20260430T06Z_MSC_RDPS_WindV_IsbL-0300_RLatLon0.09_PT037H.grib2 2026-04-30 08:52 344K
20260430T06Z_MSC_RDPS_WindV_IsbL-0350_RLatLon0.09_PT037H.grib2 2026-04-30 08:52 452K
20260430T06Z_MSC_RDPS_WindV_IsbL-0400_RLatLon0.09_PT037H.grib2 2026-04-30 08:52 455K
20260430T06Z_MSC_RDPS_WindV_IsbL-0450_RLatLon0.09_PT037H.grib2 2026-04-30 08:52 457K
20260430T06Z_MSC_RDPS_WindV_IsbL-0500_RLatLon0.09_PT037H.grib2 2026-04-30 08:52 460K
20260430T06Z_MSC_RDPS_WindV_IsbL-0550_RLatLon0.09_PT037H.grib2 2026-04-30 08:52 463K
20260430T06Z_MSC_RDPS_WindV_IsbL-0600_RLatLon0.09_PT037H.grib2 2026-04-30 08:52 456K
20260430T06Z_MSC_RDPS_WindV_IsbL-0650_RLatLon0.09_PT037H.grib2 2026-04-30 08:52 478K
20260430T06Z_MSC_RDPS_WindV_IsbL-0700_RLatLon0.09_PT037H.grib2 2026-04-30 08:52 499K
20260430T06Z_MSC_RDPS_WindV_IsbL-0750_RLatLon0.09_PT037H.grib2 2026-04-30 08:52 524K
20260430T06Z_MSC_RDPS_WindV_IsbL-0800_RLatLon0.09_PT037H.grib2 2026-04-30 08:52 565K
20260430T06Z_MSC_RDPS_WindV_IsbL-0850_RLatLon0.09_PT037H.grib2 2026-04-30 08:52 614K
20260430T06Z_MSC_RDPS_WindV_IsbL-0875_RLatLon0.09_PT037H.grib2 2026-04-30 08:52 632K
20260430T06Z_MSC_RDPS_WindV_IsbL-0900_RLatLon0.09_PT037H.grib2 2026-04-30 08:52 645K
20260430T06Z_MSC_RDPS_WindV_IsbL-0925_RLatLon0.09_PT037H.grib2 2026-04-30 08:52 794K
20260430T06Z_MSC_RDPS_WindV_IsbL-0950_RLatLon0.09_PT037H.grib2 2026-04-30 08:52 791K
20260430T06Z_MSC_RDPS_WindV_IsbL-0970_RLatLon0.09_PT037H.grib2 2026-04-30 08:52 791K
20260430T06Z_MSC_RDPS_WindV_IsbL-0985_RLatLon0.09_PT037H.grib2 2026-04-30 08:52 788K
20260430T06Z_MSC_RDPS_WindV_IsbL-1000_RLatLon0.09_PT037H.grib2 2026-04-30 08:52 829K
20260430T06Z_MSC_RDPS_WindV_IsbL-1015_RLatLon0.09_PT037H.grib2 2026-04-30 08:52 821K